Weather History for Klamath Falls, OR

Change the Weather History Date:

Sunday, September 14, 2014

  Actual Average Record
Temperature  
Mean Temperature 63 °F 58 °F  
Max Temperature 86 °F 76 °F 91 °F (1981)
Min Temperature 40 °F 40 °F 19 °F (1970)
Degree Days  
Heating Degree Days 2 7  
Month to date heating degree days 44 81  
Since 1 July heating degree days 92 200  
Cooling Degree Days 0 0  
Month to date cooling degree days 0 9  
Year to date cooling degree days 321 168  
Growing Degree Days 13 (Base 50)    
Moisture  
Dew Point 36 °F    
Average Humidity 43    
Maximum Humidity 76    
Minimum Humidity 14    
Precipitation  
Precipitation 0.00 in 0.02 in 0.48 in (1997)
Month to date precipitation 0.00 0.27  
Year to date precipitation 7.51 10.01  
Sea Level Pressure  
Sea Level Pressure 29.90 in    
Wind  
Wind Speed 2 mph (SE)    
Max Wind Speed 10 mph    
Max Gust Speed 13 mph    
Visibility 10 miles    
Events      
T = Trace of Precipitation, MM = Missing Value Source: NWS Daily Summary

Daily Weather History Graph

Daily Weather History Graph

Search for Another Location

Airport:

Trip Planner

Search our weather history database for the weather conditions in past years. The results will help you decide how hot, cold, wet, or windy it might be!

Date:

Astronomy

Sep. 14, 2014 Rise Set
Actual Time 6:45 AM PDT 7:18 PM PDT
Civil Twilight 6:17 AM PDT 7:46 PM PDT
Nautical Twilight 5:44 AM PDT 8:19 PM PDT
Astronomical Twilight 5:10 AM PDT 8:53 PM PDT
Moon 11:08 PM PDT (9/14) 1:03 PM PDT (9/14)
Length of Visible Light 13h 28m
Length of Day
12h 32m
Waning Gibbous, 63% of the Moon is Illuminated
Sep 14
Waning Gibbous
Sep 15
Last Quarter
Sep 23
New
Oct 1
First Quarter
Oct 8
Full

Hourly Weather History & Observations

Time (PDT) Temp. Windchill Dew Point Humidity Pressure Visibility Wind Dir Wind Speed Gust Speed Precip Events Conditions
12:53 AM 51.1 °F - 39.9 °F 66% 29.90 in 10.0 mi ESE 3.5 mph - N/A   Clear
1:53 AM 48.0 °F - 35.1 °F 61% 29.89 in 10.0 mi Calm Calm - N/A   Clear
2:53 AM 46.9 °F - 35.1 °F 63% 29.90 in 10.0 mi Calm Calm - N/A   Clear
3:53 AM 46.9 °F - 34.0 °F 61% 29.90 in 10.0 mi Calm Calm - N/A   Clear
4:53 AM 44.1 °F - 35.1 °F 71% 29.90 in 10.0 mi Calm Calm - N/A   Clear
5:53 AM 43.0 °F 41.3 °F 36.0 °F 76% 29.92 in 10.0 mi SSE 3.5 mph - N/A   Clear
6:53 AM 42.1 °F - 35.1 °F 76% 29.95 in 10.0 mi Calm Calm - N/A   Clear
7:53 AM 48.0 °F - 35.1 °F 61% 29.96 in 10.0 mi Calm Calm - N/A   Clear
8:53 AM 57.0 °F - 37.9 °F 49% 29.97 in 10.0 mi SSE 3.5 mph - N/A   Clear
9:53 AM 64.9 °F - 35.1 °F 33% 29.96 in 10.0 mi NE 3.5 mph - N/A   Clear
10:53 AM 71.1 °F - 33.1 °F 25% 29.95 in 10.0 mi Variable 3.5 mph - N/A   Clear
11:53 AM 75.0 °F - 35.1 °F 23% 29.93 in 10.0 mi Variable 3.5 mph - N/A   Clear
12:53 PM 80.1 °F - 37.0 °F 21% 29.90 in 10.0 mi Variable 5.8 mph - N/A   Clear
1:53 PM 82.9 °F - 33.1 °F 17% 29.88 in 10.0 mi Calm Calm - N/A   Clear
2:53 PM 84.0 °F - 33.1 °F 16% 29.86 in 10.0 mi Calm Calm - N/A   Clear
3:53 PM 84.0 °F - 32.0 °F 15% 29.85 in 10.0 mi Variable 3.5 mph - N/A   Clear
4:53 PM 84.0 °F - 30.9 °F 15% 29.85 in 10.0 mi Calm Calm - N/A   Clear
5:53 PM 84.0 °F - 33.1 °F 16% 29.85 in 10.0 mi Calm Calm - N/A   Clear
6:53 PM 77.0 °F - 42.1 °F 29% 29.86 in 10.0 mi Calm Calm - N/A   Clear
7:53 PM 70.0 °F - 37.9 °F 31% 29.87 in 10.0 mi Calm Calm - 0.00 in   Partly Cloudy
8:53 PM 64.0 °F - 39.9 °F 41% 29.88 in 10.0 mi SW 5.8 mph - N/A   Clear
9:53 PM 57.9 °F - 43.0 °F 58% 29.89 in 10.0 mi SE 5.8 mph - N/A   Clear
10:53 PM 59.0 °F - 39.9 °F 49% 29.88 in 10.0 mi Calm Calm - N/A   Clear
11:53 PM 50.0 °F - 41.0 °F 71% 29.91 in 10.0 mi East 4.6 mph - N/A   Clear